TIME,DELAY(SENSOR),PRES,OXYGEN,RAWTEMP,T(OPTODE),TCPHASE,FLUOR,BETA(BETA700),BETA(BETA412),BETA(BETA440),CDOM,C(CSC),ED(ED412.40),ED(ED444.00),ED(ED489.70),ED(ED554.30),LU(LU411.80),LU(LU443.40),LU(LU489.60),LU(LU554.10),COMP,TILTX,TILTY,CHECK
1380428290,5806,843.2800292968750000,44.3530311584472660,657.4470214843750000,4.7119851112365720,54.3189697265625000,53,101,84,79,78,15273,2147755492,2147426258,2148013549,2147873115,2147639387,2147060781,2148258294,2147199058,2769,4,13,20296
1380431886,5804,904.5000000000000000,47.7339591979980500,666.3958740234375000,4.4171810150146480,53.9397315979003900,53,98,85,78,78,15266,2147754596,2147429312,2148013275,2147873737,2147636946,2147056777,2148260434,2147200054,1240,4,13,62572
1380435486,5808,913.9600219726562000,48.6067810058593750,668.9312744140625000,4.3334941864013670,53.8488693237304700,51,99,84,78,78,15255,2147757485,2147428845,2148013485,2147874386,2147642331,2147056850,2148257618,2147198189,3094,4,13,20058
1380439086,5811,943.9000244140625000,49.9359092712402340,670.7692260742188000,4.2727828025817870,53.6886787414550800,52,97,85,79,78,15258,2147758829,2147429997,2148011648,2147871936,2147640219,2147060982,2148265590,2147196964,3304,4,13,13358
1380442686,5808,942.3400268554688000,50.5452499389648440,672.3917236328125000,4.2191557884216310,53.6237907409668000,52,96,83,78,79,15259,2147756699,2147429238,2148014784,2147874057,2147641334,2147063195,2148260598,2147197888,127,4,13,20728
1380446286,5809,945.5100097656250000,50.3969116210937500,671.9962768554688000,4.2322292327880860,53.6390190124511700,53,99,84,77,79,15258,2147755382,2147429165,2148014235,2147874733,2147640475,2147054646,2148263085,2147198445,324,4,13,45104
1380449886,5807,982.3400268554688000,51.0102996826171900,674.7545776367188000,4.1410059928894040,53.5889091491699200,53,98,84,79,78,15256,2147757202,2147426843,2148013147,2147872795,2147640749,2147056237,2148263204,2147196233,3597,3,13,47197
1380453486,5809,991.2100219726562000,51.3563995361328100,674.2767944335938000,4.1568150520324710,53.5407905578613300,53,99,86,79,78,15253,2147754880,2147424466,2148014006,2147871917,2147641398,2147058459,2148256722,2147197586,78,4,13,63913
1380457086,5811,987.1799926757812000,50.3785781860351560,673.7512817382812000,4.1741981506347660,53.6670494079589840,53,100,86,78,79,15260,2147756489,2147426249,2148013558,2147873801,2147640585,2147052297,2148260717,2147198628,3255,3,13,944
1380460686,5809,988.0900268554688000,51.0172004699707000,675.1826171875000000,4.1268439292907715,53.5951805114746100,53,99,87,78,79,15257,2147758683,2147425124,2148014025,2147871990,2147643968,2147053604,2148262875,2147198555,3547,4,13,17904
1380464286,5810,989.4799804687500000,50.7745780944824200,674.4552001953125000,4.1509127616882320,53.6169509887695300,52,96,87,80,79,15257,2147757385,2147424557,2148011227,2147872356,2147641106,2147054116,2148265828,2147198409,3332,4,13,31834
1380467886,5811,991.5000000000000000,50.9419212341308600,674.7954711914062000,4.1396541595458980,53.5990982055664060,51,98,82,78,79,15260,2147754057,2147426368,2148013065,2147872658,2147641865,2147055643,2148263433,2147196160,3488,4,13,40076
1380471486,5808,988.7000122070312000,50.9138488769531250,674.7395019531250000,4.1415061950683590,53.6068191528320300,52,97,85,79,79,15264,2147759844,2147428854,2148012306,2147873069,2147642477,2147058514,2148265874,2147194642,3355,4,13,37569
1380475086,5808,987.4500122070312000,50.7700805664062500,675.3419189453125000,4.1215720176696780,53.6289100646972660,53,101,87,79,79,15262,2147755556,2147427483,2148012635,2147872740,2147640118,2147054930,2148262198,2147194925,263,4,13,38600
1380478686,5811,984.2899780273438000,51.6234893798828100,676.4249877929688000,4.0857219696044920,53.5303115844726560,52,97,86,78,79,15201,2147758052,2147425435,2148012964,2147873325,2147641691,2147056612,2148264402,2147198006,67,4,13,62311
1380482286,5809,991.5999755859375000,51.3885498046875000,675.7686767578125000,4.1074447631835940,53.5530509948730500,52,97,82,87,79,15201,2147755885,2147430153,2148013659,2147875318,2147640411,2147058532,2148268626,2147195410,190,4,13,46241
1380485886,5807,997.0999755859375000,50.7520103454589840,674.9124755859375000,4.1357817649841310,53.6288108825683600,51,98,84,78,79,15197,2147756242,2147424612,2148013156,2147872036,2147643538,2147053842,2148262546,2147192987,3496,4,13,6512
1380489486,5812,984.7199707031250000,50.6320381164550800,675.5463867187500000,4.1148009300231930,53.6553688049316400,52,99,86,78,79,15191,2147755081,2147426404,2148012736,2147871369,2147641956,2147054500,2148265645,2147197878,60,4,13,18596
1380493086,5808,991.0399780273438000,51.8709716796875000,676.0070800781250000,4.0995559692382810,53.4881210327148440,52,98,87,78,78,15195,2147759762,2147426651,2148012342,2147872667,2147640731,2147055387,2148263634,2147196461,3373,4,13,39367
1380496686,5808,993.3300170898438000,50.9471893310546900,675.5772705078125000,4.1137790679931640,53.6076087951660160,53,98,84,79,80,15184,2147756105,2147426468,2148015963,2147873645,2147643108,2147052470,2148263442,2147192009,369,4,13,50398
1380500286,5809,991.4099731445312000,50.1622886657714840,675.6931762695312000,4.1099472045898440,53.7215499877929700,52,98,88,79,79,15194,2147755520,2147431936,2148012324,2147873782,2147641216,2147056073,2148267666,2147198646,121,4,13,54091
1380503886,5808,994.8200073242188000,50.1664199829101560,675.6245727539062000,4.1122150421142580,53.7139091491699200,52,101,86,79,79,15194,2147754633,2147426386,2148012288,2147874377,2147639844,2147056182,2148262838,2147199140,3492,4,13,8827
1380507486,5810,994.5999755859375000,49.9495391845703100,675.6199951171875000,4.1123681068420410,53.7443084716796900,52,97,86,79,80,15194,2147758674,2147427190,2148011821,2147872310,2147639789,2147055488,2148260443,2147198464,47,4,13,16022
1380511086,5809,991.0900268554688000,49.9726409912109400,675.5975952148438000,4.1131100654602050,53.7435798645019500,53,98,87,79,79,15188,2147755602,2147424969,2148015561,2147873920,2147640795,2147054272,2148264704,2147196507,3501,3,13,7786
1380514686,5808,999.3400268554688000,51.1957893371582000,675.6322021484375000,4.1119651794433590,53.5745201110839840,52,97,87,79,79,15195,2147754953,2147428653,2148013641,2147874230,2147642852,2147049563,2148259693,2147200539,881,4,13,9205
1380518286,5805,994.0499877929688000,49.9565582275390600,675.5214843750000000,4.1156249046325680,53.7461204528808600,52,101,86,78,78,15172,2147753673,2147426715,2148014573,2147871634,2147640429,2147056813,2148259849,2147199268,71,4,13,1278
1380521886,5809,1002.0599975585938000,50.2732696533203100,675.1193237304688000,4.1289367675781250,53.6973190307617200,52,99,86,79,78,15108,2147755629,2147427026,2148012617,2147871542,2147641974,2147054153,2148264429,2147196662,151,4,13,36806
1380525486,5811,1003.0800170898438000,49.8048095703125000,673.7490844726562000,4.1742691993713380,53.7455482482910160,52,104,86,79,79,15113,2147757412,2147429101,2148011986,2147872694,2147641133,2147048009,2148260233,2147199305,3568,4,13,39353
1380529086,5812,998.5300292968750000,50.1172790527343750,675.6519775390625000,4.1113090515136720,53.7221488952636700,52,103,84,78,78,15105,2147760384,2147427584,2148012809,2147871049,2147638582,2147056338,2148266349,2147196790,3065,4,13,63129
1380532686,5805,992.1400146484375000,50.4776382446289060,675.6306152343750000,4.1120190620422360,53.6719093322753900,53,99,88,78,78,15110,2147757988,2147425042,2148012224,2147873344,2147641773,2147059931,2148256429,2147197174,3115,3,13,29700
1380536286,5807,998.7500000000000000,50.4691696166992200,675.5800170898438000,4.1136932373046875,53.6749992370605500,52,99,86,79,77,15108,2147758299,2147427282,2148016777,2147872320,2147642614,2147050980,2148259620,2147197065,3128,4,13,7430
1380539886,5811,996.4400024414062000,50.1907882690429700,675.6262817382812000,4.1121621131896970,53.7121391296386700,53,99,84,78,78,15110,2147757842,2147427894,2148012178,2147870281,2147639899,2147053952,2148263149,2147197851,384,4,13,21659
1380543486,5804,988.8400268554688000,51.4455718994140600,676.6710815429688000,4.0775737762451170,53.5550613403320300,52,98,86,78,79,15109,2147758409,2147426944,2148012708,2147874358,2147643346,2147052214,2148265938,2147197485,2496,4,13,9388
1380547086,5809,991.3599853515625000,51.3571510314941400,676.4780273437500000,4.0839648246765140,53.5687484741210940,51,97,84,78,78,15109,2147759853,2147425636,2148015899,2147875099,2147642066,2147051062,2148257709,2147198006,3552,4,13,45902
1380550686,5810,997.1199951171875000,52.4184112548828100,677.6942138671875000,4.0436940193176270,53.4358787536621100,53,97,86,78,79,15107,2147758902,2147425298,2148014921,2147872356,2147643474,2147048283,2148266112,2147197257,2910,4,13,41228
1380554286,5804,1002.9299926757812000,51.2036209106445300,676.4058837890625000,4.0863528251647950,53.5841407775878900,52,99,82,78,78,15106,2147756918,2147426112,2148013019,2147876306,2147644534,2147056667,2148266395,2147198372,308,4,13,6290
1380557886,5810,999.1099853515625000,50.2457885742187500,676.1649780273438000,4.0943260192871090,53.7141494750976560,52,98,85,78,80,15103,2147757083,2147428141,2148012653,2147872009,2147642916,2147058998,2148261348,2147196416,315,4,13,16846
1380561486,5807,997.5100097656250000,50.1057701110839840,676.0416870117188000,4.0984082221984860,53.7330284118652340,53,97,87,77,79,15101,2147756608,2147429513,2148014089,2147874852,2147642002,2147053074,2148271049,2147197321,3459,4,13,197
1380565086,5808,1006.5000000000000000,50.4639511108398440,676.1218261718750000,4.0957579612731930,53.6802711486816400,52,98,84,78,80,15108,2147755785,2147429394,2148011913,2147872795,2147642377,2147056932,2148259126,2147198628,114,4,13,22347
1380568686,5809,1000.2700195312500000,50.2517318725585940,675.4774169921875000,4.1170878410339355,53.7056007385253900,52,101,84,79,79,15104,2147757156,2147426276,2148014646,2147873581,2147642934,2147054061,2148259446,2147197549,160,4,13,1745
1380570956,5808,1000.5000000000000000,50.2138481140136700,675.8120117187500000,4.1060118675231930,53.7121315002441400,52,98,81,79,79,15258,2147757458,2147428845,2148013705,2147871835,2147639872,2147054445,2148264667,2147198089,190,4,13,866
